Regional Weather Roundup
Issued by NWS Cleveland, OH

Home | Current Version | Previous Version | Text Only | Print | Product List | Glossary Off
Versions: 1 2 3 4 5 6 7 8 9 10 11 12 13 14 15 16 17 18 19 20 21 22 23 24 25 26 27 28 29 30 31 32 33 34 35 36 37 38 39 40 41 42 43 44 45 46 47 48 49 50

000
ASUS41 KCLE 281410
RWRCLE
OHIO REGIONAL WEATHER ROUNDUP
NATIONAL WEATHER SERVICE CLEVELAND, OH
1000 AM EDT FRI AUG 28 2015

NOTE: "FAIR" INDICATES FEW OR NO CLOUDS BELOW 12,000 FEET WITH NO
SIGNIFICANT WEATHER AND/OR OBSTRUCTIONS TO VISIBILITY.

OHZ001>008-015>018-024>027-034-035-043-044-281500-
   NORTHWEST OHIO

CITY           SKY/WX    TMP DP  RH WIND       PRES   REMARKS
DEFIANCE       PTSUNNY   65  58  78 CALM      30.21S
FINDLAY        SUNNY     65  58  78 S5        30.20S
TOLEDO EXPRESS SUNNY     64  57  78 E5        30.21S
TOLEDO EXEC    SUNNY     66  57  72 S5        30.22R
LIMA           SUNNY     65  58  78 S3        30.21R
$$

OHZ009>014-019>023-028>033-038-089-281500-
   NORTHEAST OHIO

CITY           SKY/WX    TMP DP  RH WIND       PRES   REMARKS
CLE-HOPKINS    MOSUNNY   66  57  72 CALM      30.24S
CLE-LAKEFRONT  MOSUNNY   68  55  63 S6        30.21S
CUY CO. ARPT   MOSUNNY   70  59  68 NE6       30.23S
LORAIN-ELYRIA  SUNNY     65  57  75 CALM      30.23R
ASHTABULA      SUNNY     63  58  83 S5        30.24S
AKRON-CANTON   MOSUNNY   67  56  67 S3        30.23S
WOOSTER        SUNNY     66  58  75 VRB3      30.24R
MANSFIELD      SUNNY     66  58  75 S6        30.22S
YOUNGSTOWN     SUNNY     65  54  67 S5        30.23S
$$

OHZ042-051>053-060>062-070>072-077>081-281500-
  SOUTHWEST OHIO

CITY           SKY/WX    TMP DP  RH WIND       PRES   REMARKS
CINC-COVINGTON SUNNY     68  58  70 E6        30.20
CINC-LUNKEN    SUNNY     65  60  84 CALM      30.21S
HAMILTON       SUNNY     67  59  75 CALM      30.21F
DAYTON         MOSUNNY   67  59  75 SE5       30.22S
WRIGHT-PAT AFB SUNNY     65  59  79 VRB1      30.21S
DAYTON GENERAL SUNNY     67  57  70 E3        30.20S
WILMINGTON     SUNNY     65  58  78 VRB3      30.22R
$$

OHZ036-037-039>041-045>050-054>059-063>069-073>076-082>088-281500-
  CENTRAL AND SOUTHEAST OHIO

CITY           SKY/WX    TMP DP  RH WIND       PRES   REMARKS
COLUMBUS       MOSUNNY   67  58  72 CALM      30.21R
OSU AIRPORT    SUNNY     67  58  72 CALM      30.22R
BOLTON FIELD   SUNNY     66  61  82 CALM      30.22R
RICKENBACK AFB SUNNY     64  58  83 CALM      30.21R
NEWARK         SUNNY     65  58  78 CALM      30.22R
MARION         SUNNY     65  58  78 S5        30.22R
LANCASTER      SUNNY     65  58  78 CALM      30.22S
ZANESVILLE     SUNNY     67  56  67 E5        30.22S
NEW PHILLY     SUNNY     66  58  75 CALM      30.23S
$$



USA.gov is the U.S. government's official web portal to all federal, state and local government web resources and services.